Falfurrias, TX

7:12 PM CST on November 15, 2019 (GMT -0600)
Falfurrias

Weather History for KBKS - September, 2019

Change the Weather History Date:

Sunday, September 1, 2019

  Actual Average (KNQI) Record (KNQI)
Temperature  
Mean Temperature 88 °F -  
Max Temperature 100 °F 90 °F 102 °F (2000)
Min Temperature 76 °F 72 °F 69 °F (1996)
Cooling Degree Days 22    
Growing Degree Days 38 (Base 50)    
Moisture  
Dew Point 71 °F    
Average Humidity 63    
Maximum Humidity 90    
Minimum Humidity 32    
Precipitation  
Precipitation 0.00 in - - ()
Sea Level Pressure  
Sea Level Pressure 29.97 in    
Wind  
Wind Speed 3 mph ()    
Max Wind Speed 16 mph    
Max Gust Speed 22 mph    
Visibility 9.9 miles    
Events      
Averages and records for this station are not official NWS values.
T = Trace of Precipitation, MM = Missing Value Source: Averaged Metar Reports

Daily Weather History Graph

Daily Weather History Graph

Search for Another Location

Airport or City:

Astronomy

Sep. 01, 2019 Rise Set
Actual Time 7:11 AM CDT 7:52 PM CDT
Civil Twilight 6:47 AM CDT 8:16 PM CDT
Nautical Twilight 6:20 AM CDT 8:44 PM CDT
Astronomical Twilight 5:51 AM CDT 9:12 PM CDT
Moon 9:32 AM CDT (9/1) 9:55 PM CDT (9/1)
Length of Visible Light 13h 28m
Length of Day
12h 41m
Waxing Crescent, 8% of the Moon is Illuminated
Sep 1
Waxing Crescent
Sep 5
First Quarter
Sep 13
Full
Sep 21
Last Quarter
Sep 28
New

Hourly Weather History & Observations

Time (CDT) Temp. Heat Index Dew Point Humidity Pressure Visibility Wind Dir Wind Speed Gust Speed Precip Events Conditions
12:15 AM 79.7 °F - 73.4 °F 81% 29.98 in 10.0 mi Calm Calm - N/A   Clear
12:35 AM 79.5 °F - 73.6 °F 82% 29.98 in 10.0 mi Calm Calm - N/A   Clear
12:55 AM 79.0 °F - 73.6 °F 83% 29.98 in 10.0 mi Calm Calm - N/A   Clear
1:15 AM 79.3 °F - 74.3 °F 84% 29.98 in 10.0 mi Calm Calm - N/A   Clear
1:35 AM 79.5 °F - 73.8 °F 82% 29.98 in 10.0 mi Calm Calm - N/A   Clear
1:55 AM 79.0 °F - 73.8 °F 84% 29.98 in 10.0 mi Calm Calm - N/A   Clear
2:15 AM 79.2 °F - 73.8 °F 83% 29.98 in 10.0 mi Calm Calm - N/A   Clear
2:35 AM 79.0 °F - 73.6 °F 83% 29.98 in 10.0 mi Calm Calm - N/A   Clear
2:55 AM 77.7 °F - 73.4 °F 86% 29.98 in 10.0 mi Calm Calm - N/A   Clear
3:15 AM 77.2 °F - 73.2 °F 88% 29.98 in 10.0 mi Calm Calm - N/A   Clear
3:35 AM 77.7 °F - 73.4 °F 86% 29.98 in 10.0 mi Calm Calm - N/A   Clear
3:55 AM 77.4 °F - 73.4 °F 88% 29.98 in 10.0 mi Calm Calm - N/A   Clear
4:15 AM 78.1 °F - 73.6 °F 86% 29.97 in 10.0 mi Calm Calm - N/A   Clear
4:35 AM 77.5 °F - 73.6 °F 88% 29.97 in 10.0 mi Calm Calm - N/A   Clear
4:55 AM 77.0 °F - 73.4 °F 89% 29.96 in 10.0 mi Calm Calm - N/A   Clear
5:15 AM 77.0 °F - 73.4 °F 89% 29.97 in 10.0 mi North 5.8 mph - N/A   Clear
5:35 AM 77.0 °F - 73.4 °F 89% 29.97 in 10.0 mi Calm Calm - N/A   Scattered Clouds
5:55 AM 76.6 °F - 73.0 °F 89% 29.98 in 10.0 mi Calm Calm - N/A   Scattered Clouds
6:15 AM 76.8 °F - 73.0 °F 88% 29.98 in 10.0 mi Calm Calm - N/A   Scattered Clouds
6:35 AM 76.1 °F - 72.7 °F 89% 29.98 in 10.0 mi Calm Calm - N/A   Clear
6:55 AM 76.1 °F - 72.7 °F 89% 29.98 in 10.0 mi Calm Calm - N/A   Clear
7:15 AM 76.1 °F - 72.7 °F 89% 29.99 in 7.0 mi North 3.5 mph - N/A   Clear
7:35 AM 76.3 °F - 73.0 °F 90% 30.00 in 7.0 mi North 3.5 mph - N/A   Scattered Clouds
7:55 AM 77.0 °F - 73.6 °F 89% 30.00 in 10.0 mi North 5.8 mph - N/A   Scattered Clouds
8:15 AM 78.6 °F - 74.5 °F 87% 30.01 in 10.0 mi Calm Calm - N/A   Clear
8:35 AM 81.0 °F 87.1 °F 75.7 °F 84% 30.01 in 10.0 mi North 3.5 mph - N/A   Clear
8:55 AM 83.1 °F 91.3 °F 76.1 °F 79% 30.02 in 10.0 mi Calm Calm - N/A   Clear
9:15 AM 84.9 °F 94.9 °F 76.5 °F 76% 30.02 in 10.0 mi North 3.5 mph - N/A   Clear
9:35 AM 86.5 °F 96.4 °F 75.7 °F 70% 30.02 in 10.0 mi ENE 3.5 mph - N/A   Clear
9:55 AM 88.9 °F 97.1 °F 73.6 °F 60% 30.02 in 10.0 mi Calm Calm - N/A   Scattered Clouds
10:15 AM 88.7 °F 96.2 °F 72.7 °F 59% 30.02 in 10.0 mi Calm Calm - N/A   Scattered Clouds
10:35 AM 89.4 °F 97.3 °F 72.7 °F 58% 30.03 in 10.0 mi NNW 3.5 mph - N/A   Scattered Clouds
10:55 AM 92.1 °F 98.8 °F 71.2 °F 50% 30.02 in 10.0 mi North 4.6 mph - N/A   Scattered Clouds
11:15 AM 92.3 °F 96.1 °F 67.6 °F 44% 30.02 in 10.0 mi ENE 6.9 mph - N/A   Scattered Clouds
11:35 AM 92.1 °F 97.7 °F 69.8 °F 48% 30.01 in 10.0 mi NNW 3.5 mph - N/A   Clear
11:55 AM 94.6 °F 99.4 °F 68.0 °F 42% 30.01 in 10.0 mi East 4.6 mph - N/A   Scattered Clouds
12:15 PM 95.2 °F 99.3 °F 67.3 °F 40% 30.01 in 10.0 mi ENE 8.1 mph - N/A   Scattered Clouds
12:35 PM 95.9 °F 100.1 °F 67.5 °F 39% 30.00 in 10.0 mi NE 9.2 mph - N/A   Scattered Clouds
12:55 PM 96.1 °F 100.5 °F 67.6 °F 39% 29.99 in 10.0 mi Calm Calm - N/A   Scattered Clouds
1:15 PM 96.4 °F 100.0 °F 66.2 °F 37% 29.98 in 10.0 mi ENE 9.2 mph - N/A   Scattered Clouds
1:35 PM 97.2 °F 100.2 °F 65.7 °F 35% 29.97 in 10.0 mi NE 4.6 mph - N/A   Scattered Clouds
1:55 PM 97.2 °F 100.7 °F 66.4 °F 36% 29.96 in 10.0 mi ENE 8.1 mph - N/A   Scattered Clouds
2:15 PM 97.7 °F 101.7 °F 66.4 °F 36% 29.95 in 10.0 mi NNE 9.2 mph - N/A   Scattered Clouds
2:35 PM 99.0 °F 102.9 °F 66.0 °F 34% 29.94 in 10.0 mi NE 9.2 mph - N/A   Scattered Clouds
2:55 PM 97.5 °F 102.6 °F 67.8 °F 38% 29.93 in 10.0 mi ENE 13.8 mph 17.3 mph N/A   Scattered Clouds
3:15 PM 96.8 °F 102.5 °F 68.7 °F 40% 29.93 in 10.0 mi NE 11.5 mph 17.3 mph N/A   Mostly Cloudy
3:35 PM 99.3 °F 103.5 °F 66.2 °F 34% 29.92 in 10.0 mi ENE 9.2 mph 17.3 mph N/A   Scattered Clouds
3:55 PM 99.1 °F 103.2 °F 66.2 °F 34% 29.91 in 10.0 mi ENE 10.4 mph - N/A   Scattered Clouds
4:15 PM 97.9 °F 101.5 °F 66.2 °F 35% 29.91 in 10.0 mi East 12.7 mph 20.7 mph N/A   Scattered Clouds
4:35 PM 98.8 °F 101.9 °F 65.3 °F 33% 29.90 in 10.0 mi ENE 16.1 mph 21.9 mph N/A   Clear
4:55 PM 97.5 °F 101.4 °F 66.7 °F 36% 29.90 in 10.0 mi ENE 13.8 mph 21.9 mph N/A   Clear
5:15 PM 97.7 °F 101.7 °F 66.6 °F 36% 29.90 in 10.0 mi ENE 15.0 mph 20.7 mph N/A   Clear
5:55 PM 96.6 °F 98.7 °F 64.4 °F 34% 29.90 in 10.0 mi ENE 11.5 mph 16.1 mph N/A   Clear
6:15 PM 96.1 °F 98.3 °F 64.0 °F 35% 29.91 in 10.0 mi East 12.7 mph - N/A   Clear
6:35 PM 95.7 °F 96.3 °F 61.2 °F 32% 29.91 in 10.0 mi ENE 11.5 mph 17.3 mph N/A   Clear
6:55 PM 95.0 °F 96.0 °F 63.0 °F 34% 29.91 in 10.0 mi East 11.5 mph - N/A   Clear
7:15 PM 93.2 °F 96.2 °F 66.2 °F 41% 29.91 in 10.0 mi East 10.4 mph 17.3 mph N/A   Clear
7:35 PM 91.8 °F 94.6 °F 66.0 °F 43% 29.91 in 10.0 mi East 8.1 mph - N/A   Clear
7:55 PM 90.0 °F 93.2 °F 67.1 °F 47% 29.92 in 10.0 mi East 5.8 mph - N/A   Clear
8:15 PM 88.7 °F 92.2 °F 68.0 °F 50% 29.93 in 10.0 mi East 5.8 mph - N/A   Clear
8:35 PM 87.4 °F 91.2 °F 68.5 °F 53% 29.94 in 10.0 mi East 3.5 mph - N/A   Clear
8:55 PM 86.0 °F 90.4 °F 69.6 °F 58% 29.95 in 10.0 mi ESE 4.6 mph - N/A   Clear
9:15 PM 85.3 °F 90.4 °F 71.1 °F 62% 29.96 in 10.0 mi ESE 4.6 mph - N/A   Clear
9:35 PM 84.2 °F 89.3 °F 71.4 °F 65% 29.96 in 10.0 mi SE 3.5 mph - N/A   Clear
9:55 PM 83.5 °F 88.8 °F 72.0 °F 68% 29.97 in 10.0 mi SE 3.5 mph - N/A   Clear
10:15 PM 82.6 °F 87.6 °F 72.0 °F 70% 29.98 in 10.0 mi SE 3.5 mph - N/A   Clear
10:35 PM 82.2 °F 87.1 °F 72.1 °F 71% 29.98 in 10.0 mi Calm Calm - N/A   Clear
10:55 PM 80.8 °F 84.9 °F 72.0 °F 74% 29.99 in 10.0 mi Calm Calm - N/A   Clear
11:15 PM 81.0 °F 85.2 °F 72.1 °F 74% 29.99 in 10.0 mi Calm Calm - N/A   Clear
11:35 PM 80.8 °F 85.1 °F 72.1 °F 75% 30.00 in 10.0 mi Calm Calm - N/A   Clear
11:55 PM 79.7 °F - 72.1 °F 78% 29.99 in 10.0 mi Calm Calm - N/A   Clear